Stations météo

réclame
Mon MeteoGroup
Groningen Eelde, Pays-Bas (6280): Température de l'air & dewpoint: 15.06.2018 12:00:00 - 21.06.2018 12:00:00 (CEST)Groningen Eelde, Pays-Bas (6280): Température de l'air 5cm: 15.06.2018 12:00:00 - 21.06.2018 12:00:00 (CEST)Groningen Eelde, Pays-Bas (6280): Vitesse du vent & gusts: 15.06.2018 12:00:00 - 21.06.2018 12:00:00 (CEST)Groningen Eelde, Pays-Bas (6280): Direction du vent: 15.06.2018 12:00:00 - 21.06.2018 12:00:00 (CEST)Groningen Eelde, Pays-Bas (6280): reduced air pressure: 15.06.2018 12:00:00 - 21.06.2018 12:00:00 (CEST)Groningen Eelde, Pays-Bas (6280): visibility: 15.06.2018 12:00:00 - 21.06.2018 12:00:00 (CEST)Groningen Eelde, Pays-Bas (6280): Quantités de précipitations: 15.06.2018 12:00:00 - 21.06.2018 12:00:00 (CEST)
Date & Time tt [°C] td [°C] tt 5cm [°C] ff [km/h] ff [knt] fx [km/h] fx [knt] dd ppp [hPa] vv [km] rr [mm]
21.06.2018 12:00:00 15,0 7,0 - 31 17 - - W - 10 -
21.06.2018 11:00:00 14,8 7,8 15,5 31 17 58 31 WNW 1015,2 10 0,0
21.06.2018 10:00:00 13,1 10,5 12,6 21 11 43 23 W 1014,4 10 1,4
21.06.2018 09:00:00 13,4 11,1 13,4 13 7 25 14 W 1014,1 10 0,4
21.06.2018 08:00:00 13,6 10,9 13,3 13 7 25 14 W 1014,1 10 0,0
21.06.2018 07:00:00 13,8 11,7 13,5 15 8 29 16 WNW 1013,9 10 0,0
21.06.2018 06:00:00 14,0 12,7 13,6 15 8 22 12 WNW 1013,8 10 0,0
21.06.2018 05:00:00 14,4 13,6 14,2 11 6 18 10 WNW 1014,0 10 0,0
21.06.2018 04:00:00 14,9 13,9 14,7 16 9 25 14 NW 1014,1 10 0,0
21.06.2018 03:00:00 16,2 15,4 15,9 13 7 22 12 WNW 1014,5 10 0,0
21.06.2018 02:00:00 16,6 16,0 16,4 9 5 14 8 W 1014,7 9 0,1
21.06.2018 01:00:00 17,4 15,7 16,4 9 5 14 8 WSW 1015,2 10 0,0
21.06.2018 00:00:00 17,0 15,6 15,3 9 5 14 8 SW 1015,5 10 0,0
20.06.2018 23:00:00 17,2 15,1 14,9 9 5 18 10 WSW 1016,1 10 0,0
20.06.2018 22:00:00 18,1 15,2 16,2 16 9 25 14 WSW 1016,3 10 0,0
20.06.2018 21:00:00 19,8 15,1 18,8 18 10 32 18 WSW 1016,3 10 0,0
20.06.2018 20:00:00 20,9 15,5 21,3 21 11 32 18 W 1016,8 10 0,0
20.06.2018 19:00:00 21,2 16,0 22,2 26 14 40 21 WSW 1017,2 10 0,0
20.06.2018 18:00:00 22,6 16,2 24,6 28 15 40 21 WSW 1017,4 10 0,0
20.06.2018 17:00:00 23,7 16,7 24,3 26 14 40 21 SW 1018,1 10 0,0
20.06.2018 16:00:00 23,6 16,9 26,6 29 16 43 23 SW 1018,1 10 0,0
20.06.2018 15:00:00 24,7 17,9 25,7 24 13 40 21 SW 1018,4 10 0,0
20.06.2018 14:00:00 22,9 17,1 24,9 26 14 40 21 SW 1018,7 10 0,0
20.06.2018 13:00:00 23,1 16,8 25,6 26 14 40 21 SW 1019,3 10 0,0
20.06.2018 12:00:00 22,0 17,0 24,1 26 14 32 18 SW 1019,7 10 0,0
20.06.2018 11:00:00 21,7 17,0 23,7 18 10 32 18 SW 1019,9 10 0,0
20.06.2018 10:00:00 21,4 16,9 25,3 21 11 32 18 SSW 1020,2 10 0,0
20.06.2018 09:00:00 20,1 17,0 22,8 18 10 32 18 SSW 1020,5 10 0,0
20.06.2018 08:00:00 17,8 16,1 19,0 18 10 29 16 SSW 1020,6 10 0,0
20.06.2018 07:00:00 16,7 15,7 16,9 16 9 25 14 SSW 1020,8 7 0,0
20.06.2018 06:00:00 15,5 14,9 14,4 15 8 22 12 SSW 1021,1 7 0,0
20.06.2018 05:00:00 15,0 14,4 13,5 13 7 18 10 SSW 1021,1 6 0,0
20.06.2018 04:00:00 15,1 14,5 13,1 11 6 18 10 SSW 1021,4 7 0,0
20.06.2018 03:00:00 15,2 14,5 12,6 9 5 14 8 SSW 1021,9 9 0,0
20.06.2018 02:00:00 16,1 14,7 14,4 8 4 11 6 S 1022,2 10 0,0
20.06.2018 01:00:00 17,1 14,9 15,8 9 5 14 8 S 1022,6 10 0,0
20.06.2018 00:00:00 16,6 14,6 14,9 8 4 11 6 S 1022,9 10 0,0
19.06.2018 23:00:00 17,7 14,8 16,6 8 4 11 6 SSW 1023,2 10 0,0
19.06.2018 22:00:00 18,0 15,0 17,7 4 2 11 6 SW 1023,1 10 0,0
19.06.2018 21:00:00 19,0 14,3 18,6 8 4 18 10 W 1022,8 10 0,0
19.06.2018 20:00:00 20,1 14,6 19,8 13 7 25 14 W 1022,9 10 0,0
19.06.2018 19:00:00 19,8 14,5 21,1 16 9 22 12 W 1023,0 10 0,0
19.06.2018 18:00:00 19,9 14,0 20,4 14 8 25 14 W 1023,1 41 0,0
19.06.2018 17:00:00 21,3 14,1 22,4 16 9 29 16 W 1022,9 10 0,0
19.06.2018 16:00:00 21,3 14,6 21,6 15 8 25 14 WNW 1022,8 10 0,0
19.06.2018 15:00:00 20,2 14,1 21,4 15 8 25 14 W 1022,6 10 0,0
19.06.2018 14:00:00 20,4 15,1 21,9 15 8 25 14 W 1022,4 10 0,0
19.06.2018 13:00:00 19,5 15,1 20,6 13 7 25 14 W 1022,4 10 0,0
19.06.2018 12:00:00 18,2 15,1 18,0 16 9 25 14 WNW 1021,8 10 0,0
19.06.2018 11:00:00 18,3 16,0 19,0 15 8 22 12 W 1021,4 10 0,0
19.06.2018 10:00:00 17,4 16,3 17,4 9 5 18 10 W 1021,0 10 0,0
19.06.2018 09:00:00 16,7 16,1 17,1 15 8 22 12 SW 1020,1 8 0,0
19.06.2018 08:00:00 16,3 15,7 16,4 15 8 22 12 SSW 1019,5 10 0,2
19.06.2018 07:00:00 15,9 15,2 15,9 18 10 25 14 SW 1019,2 4,6 0,3
19.06.2018 06:00:00 15,8 14,0 15,2 16 9 29 16 SW 1018,7 10 0,0
19.06.2018 05:00:00 15,4 13,3 14,7 14 8 25 14 SSW 1018,5 21 0,0
19.06.2018 04:00:00 15,5 13,2 14,8 18 10 29 16 SSW 1018,3 26 0,0
19.06.2018 03:00:00 15,8 13,2 14,9 22 12 32 18 SW 1018,3 25 0,0
19.06.2018 02:00:00 15,8 13,4 14,7 18 10 25 14 SW 1018,3 25 0,0
19.06.2018 01:00:00 15,2 13,5 14,2 13 7 22 12 SSW 1018,3 10 0,0
19.06.2018 00:00:00 15,1 13,6 13,6 11 6 18 10 SW 1019,0 10 0,0
18.06.2018 23:00:00 13,8 12,7 11,7 11 6 18 10 SW 1019,1 10 0,0
18.06.2018 22:00:00 14,9 13,2 13,5 15 8 25 14 SW 1018,7 10 0,0
18.06.2018 21:00:00 16,9 13,8 16,7 15 8 29 16 WSW 1018,6 10 0,0
18.06.2018 20:00:00 16,9 14,0 16,6 16 9 36 19 WSW 1018,4 10 0,0
18.06.2018 19:00:00 17,6 14,2 18,0 21 11 36 19 WSW 1018,1 10 0,0
18.06.2018 18:00:00 16,7 15,4 17,0 21 11 36 19 WSW 1018,3 10 0,4
18.06.2018 17:00:00 17,3 16,1 17,5 18 10 32 18 W 1018,3 10 0,1
18.06.2018 16:00:00 17,9 15,9 18,1 14 8 29 16 WSW 1018,1 19 0,0
18.06.2018 15:00:00 19,2 16,5 22,2 22 12 32 18 WSW 1017,9 10 0,0
18.06.2018 14:00:00 16,9 15,9 17,8 15 8 32 18 W 1018,1 5 0,5
18.06.2018 13:00:00 17,4 15,6 18,4 21 11 36 19 SSW 1017,9 10 0,0
18.06.2018 12:00:00 17,6 15,7 18,4 26 14 36 19 SSW 1017,8 10 0,0
18.06.2018 11:00:00 17,2 14,7 18,5 24 13 36 19 SSW 1017,5 10 0,0
18.06.2018 10:00:00 15,4 14,1 16,2 22 12 32 18 SSW 1017,4 4,2 0,0
18.06.2018 09:00:00 14,5 13,6 14,6 18 10 29 16 S 1017,6 9 0,0
18.06.2018 08:00:00 14,1 13,2 14,0 18 10 32 18 S 1017,3 10 0,0
18.06.2018 07:00:00 14,1 12,6 13,9 18 10 29 16 SSW 1017,3 10 0,0
18.06.2018 06:00:00 13,9 12,2 13,3 16 9 25 14 SSW 1017,5 10 0,0
18.06.2018 05:00:00 13,5 11,6 12,5 15 8 22 12 S 1017,4 10 0,0
18.06.2018 04:00:00 13,0 11,2 11,7 13 7 22 12 SSW 1017,5 10 0,0
18.06.2018 03:00:00 12,8 11,5 11,3 13 7 18 10 S 1017,8 10 0,0
18.06.2018 02:00:00 13,1 11,8 11,9 13 7 18 10 S 1018,0 10 0,0
18.06.2018 01:00:00 13,6 12,2 12,6 9 5 14 8 S 1018,1 10 0,0
18.06.2018 00:00:00 13,2 11,9 11,9 9 5 14 8 SSW 1018,1 10 0,0
17.06.2018 23:00:00 13,9 12,4 13,3 9 5 22 12 SSW 1018,2 10 0,0
17.06.2018 22:00:00 14,1 12,1 13,4 8 4 22 12 S 1017,9 10 0,6
17.06.2018 21:00:00 15,0 11,5 14,3 13 7 22 12 S 1017,9 10 0,0
17.06.2018 20:00:00 15,4 11,2 15,1 13 7 32 18 WSW 1017,4 10 0,0
17.06.2018 19:00:00 16,0 10,8 15,3 13 7 29 16 W 1017,3 10 0,1
17.06.2018 18:00:00 17,9 10,3 18,3 16 9 29 16 W 1016,8 10 0,0
17.06.2018 17:00:00 18,3 10,8 19,4 15 8 29 16 W 1016,6 10 0,0
17.06.2018 16:00:00 17,3 10,5 18,3 18 10 36 19 W 1016,7 10 0,0
17.06.2018 15:00:00 17,8 11,6 18,4 22 12 36 19 WSW 1016,3 10 0,0
17.06.2018 14:00:00 17,2 10,9 17,7 26 14 40 21 WSW 1015,9 10 0,0
17.06.2018 13:00:00 18,4 12,5 20,4 26 14 40 21 WSW 1015,3 10 0,0
17.06.2018 12:00:00 17,4 12,0 19,1 26 14 43 23 SW 1014,8 10 0,0
17.06.2018 11:00:00 18,8 12,3 19,6 28 15 43 23 WSW 1014,5 10 0,0
17.06.2018 10:00:00 16,7 13,5 17,7 18 10 36 19 SW 1014,2 10 0,0
17.06.2018 09:00:00 16,0 12,7 17,4 21 11 32 18 SW 1013,7 10 0,0
17.06.2018 08:00:00 15,0 12,0 15,4 21 11 32 18 SSW 1013,3 10 0,0
17.06.2018 07:00:00 14,2 11,3 14,1 16 9 25 14 SSW 1013,2 10 0,0
17.06.2018 06:00:00 13,9 11,2 13,0 13 7 25 14 SSW 1013,3 10 0,0
17.06.2018 05:00:00 13,5 11,1 12,2 15 8 22 12 SSW 1013,3 10 0,0
17.06.2018 04:00:00 12,2 9,9 10,0 11 6 22 12 S 1013,5 10 0,0
17.06.2018 03:00:00 12,3 9,5 9,7 13 7 18 10 SSW 1013,7 10 0,0
17.06.2018 02:00:00 11,5 9,0 7,8 9 5 14 8 S 1013,9 10 0,0
17.06.2018 01:00:00 12,4 9,5 8,3 9 5 18 10 SSW 1014,0 10 0,0
17.06.2018 00:00:00 13,6 9,9 11,2 15 8 22 12 SW 1014,2 10 0,0
16.06.2018 23:00:00 14,1 10,6 11,6 5 3 11 6 SSW 1014,1 10 0,0
16.06.2018 22:00:00 15,6 11,0 14,4 8 4 14 8 WSW 1013,9 10 0,0
16.06.2018 21:00:00 17,1 10,5 16,0 9 5 25 14 W 1013,7 10 0,0
16.06.2018 20:00:00 18,3 11,5 17,9 13 7 29 16 W 1013,6 10 0,0
16.06.2018 19:00:00 19,6 11,6 19,8 18 10 36 19 WSW 1013,5 10 0,0
16.06.2018 18:00:00 19,9 9,1 20,2 22 12 32 18 WSW 1013,5 10 0,0
16.06.2018 17:00:00 20,8 10,4 20,7 21 11 32 18 WSW 1013,3 10 0,0
16.06.2018 16:00:00 21,8 13,6 22,6 21 11 32 18 SW 1013,3 10 0,0
16.06.2018 15:00:00 21,4 13,1 23,8 21 11 36 19 SW 1013,4 10 0,0
16.06.2018 14:00:00 20,8 13,6 22,3 18 10 29 16 WSW 1013,9 10 0,0
16.06.2018 13:00:00 21,1 14,1 25,1 15 8 22 12 WSW 1014,1 10 0,0
16.06.2018 12:00:00 20,4 14,3 22,5 13 7 22 12 SW 1014,4 10 0,0
16.06.2018 11:00:00 19,9 14,4 22,2 9 5 14 8 SSW 1014,2 10 0,0
16.06.2018 10:00:00 20,2 16,2 21,7 4 2 7 4 - 1014,0 10 0,0
16.06.2018 09:00:00 17,4 13,9 17,7 4 2 7 4 - 1014,2 10 0,0
16.06.2018 08:00:00 15,8 13,5 15,6 4 2 7 4 - 1014,0 10 0,0
16.06.2018 07:00:00 14,6 13,0 14,0 4 2 11 6 ESE 1014,2 18 0,1
16.06.2018 06:00:00 14,1 12,7 13,5 4 2 11 6 N 1014,5 19 0,0
16.06.2018 05:00:00 14,2 12,1 13,3 7 4 18 10 NW 1014,9 25 0,0
16.06.2018 04:00:00 14,0 12,1 13,0 7 4 7 4 NNW 1014,9 31 0,0
16.06.2018 03:00:00 13,9 11,8 12,3 4 2 11 6 E 1015,0 34 0,0
16.06.2018 02:00:00 13,9 10,9 10,7 4 2 11 6 ENE 1015,5 29 0,0
16.06.2018 01:00:00 13,4 10,6 10,5 7 4 11 6 E 1015,5 30 0,0
16.06.2018 00:00:00 14,0 11,2 10,8 8 4 11 6 ENE 1015,9 10 0,0
15.06.2018 23:00:00 14,2 11,1 10,9 5 3 11 6 ENE 1015,8 10 0,0
15.06.2018 22:00:00 16,3 11,4 14,2 9 5 14 8 NNE 1016,1 10 0,0
15.06.2018 21:00:00 18,1 12,4 17,3 11 6 18 10 NNE 1016,2 10 0,0
15.06.2018 20:00:00 19,0 12,0 18,9 13 7 18 10 N 1016,1 10 0,0
15.06.2018 19:00:00 21,4 11,5 22,9 9 5 18 10 WNW 1016,0 10 0,0
15.06.2018 18:00:00 20,7 11,1 20,6 2 1 7 4 - 1016,0 10 0,0
15.06.2018 17:00:00 20,6 12,3 20,6 8 4 14 8 NNW 1016,2 10 0,0
15.06.2018 16:00:00 21,4 11,9 20,8 9 5 14 8 NNE 1016,5 10 0,0
15.06.2018 15:00:00 21,0 11,4 22,6 8 4 14 8 ENE 1016,6 10 0,0
15.06.2018 14:00:00 20,6 11,1 21,3 2 1 11 6 - 1016,9 10 0,0
15.06.2018 13:00:00 20,2 11,1 23,5 13 7 22 12 S 1017,1 10 0,0
15.06.2018 12:00:00 20,4 11,9 23,0 8 4 18 10 SE 1017,2 10 0,0

tt = Température de l'air
td = dewpoint
tt 5cm = Température de l'air 5cm
ff = Vitesse du vent
fx = gusts
dd = Direction du vent
ppp = reduced air pressure
vv = visibility
rr = Quantités de précipitations

stations d'obs. à proximité